OZ7MKS Weather Reports


time (UTC)temp
C
wind
direction
speed
KPH
gust
KPH
rain 1hr
cm
rain 24hr
cm
rain mn
cm
humidity
%
barometer
mb
20260506103504 13 57 4.8 14.5 0.00 0.00 0.00 59 1012.7
20260506103004 13 89 6.4 11.3 0.00 0.00 0.00 60 1012.7
20260506102503 13 71 4.8 11.3 0.00 0.00 0.00 60 1012.7
20260506102004 13 42 8.0 14.5 0.00 0.00 0.00 60 1012.7
20260506101503 13 69 4.8 14.5 0.00 0.00 0.00 58 1012.7
20260506101003 13 58 8.0 14.5 0.00 0.00 0.00 62 1012.8
20260506100004 13 80 4.8 14.5 0.00 0.00 0.00 63 1012.7
20260506095004 13 54 4.8 12.9 0.00 0.00 0.00 61 1012.8
20260506094503 13 44 8.0 19.3 0.00 0.00 0.00 63 1012.8
20260506094004 13 53 4.8 14.5 0.00 0.00 0.00 63 1012.8
20260506093004 13 53 6.4 14.5 0.00 0.00 0.00 62 1012.8
20260506092504 13 107 4.8 12.9 0.00 0.00 0.00 63 1012.8
20260506091503 13 81 8.0 16.1 0.00 0.00 0.00 62 1012.8
20260506091004 13 55 8.0 19.3 0.00 0.00 0.00 65 1012.8
20260506090504 12 118 4.8 11.3 0.00 0.00 0.00 65 1012.8
20260506090003 12 61 8.0 16.1 0.00 0.00 0.00 67 1012.8
20260506085004 12 43 6.4 12.9 0.00 0.00 0.00 69 1012.8
20260506084504 12 358 3.2 12.9 0.00 0.00 0.00 68 1012.8
20260506084003 12 95 8.0 14.5 0.00 0.00 0.00 69 1012.9
20260506083004 12 64 8.0 14.5 0.00 0.00 0.00 72 1012.8
20260506082504 12 58 9.7 16.1 0.00 0.00 0.00 69 1012.8
20260506082003 12 342 6.4 12.9 0.00 0.00 0.00 70 1012.8
20260506081504 12 49 8.0 12.9 0.00 0.00 0.00 72 1012.8
20260506081003 12 61 4.8 16.1 0.00 0.00 0.00 71 1012.8
20260506073504 11 56 6.4 14.5 0.00 0.00 0.00 73 1012.7
20260506073004 12 58 8.0 16.1 0.00 0.00 0.00 73 1012.8
20260506072504 12 45 4.8 12.9 0.00 0.00 0.00 75 1012.7
20260506072003 11 68 8.0 14.5 0.00 0.00 0.00 73 1012.6
20260506071503 11 49 4.8 11.3 0.00 0.00 0.00 74 1012.6
20260506071003 11 1 3.2 8.0 0.00 0.00 0.00 75 1012.5
20260506062503 10 4 3.2 12.9 0.00 0.00 0.00 79 1012.4
20260506062004 9 50 1.6 8.0 0.00 0.00 0.00 80 1012.4
20260506061504 9 339 3.2 9.7 0.00 0.00 0.00 81 1012.4
20260506061004 8 32 3.2 8.0 0.00 0.00 0.00 82 1012.3
20260506060504 8 42 3.2 9.7 0.00 0.00 0.00 83 1012.3
20260506051003 5 315 0.0 4.8 0.00 0.00 0.00 93 1012.4
20260506050504 5 319 0.0 3.2 0.00 0.00 0.00 94 1012.5
20260506045004 5 318 0.0 0.0 0.00 0.00 0.00 93 1012.5
20260506044504 4 318 0.0 0.0 0.00 0.00 0.00 93 1012.5
20260506044004 4 318 0.0 0.0 0.00 0.00 0.00 92 1012.6
20260506042504 4 318 0.0 0.0 0.00 0.00 0.00 92 1012.7
20260506042003 4 318 0.0 1.6 0.00 0.00 0.00 92 1012.6
20260506041504 4 318 0.0 0.0 0.00 0.00 0.00 92 1012.7
20260506041003 4 318 0.0 1.6 0.00 0.00 0.00 92 1012.6
20260506040504 4 318 0.0 0.0 0.00 0.00 0.00 91 1012.7
20260506040004 4 318 0.0 0.0 0.00 0.00 0.00 91 1012.7
20260506035503 4 318 0.0 0.0 0.00 0.00 0.00 91 1012.7
20260506035004 4 318 0.0 1.6 0.00 0.00 0.00 91 1012.7
20260506034504 4 318 0.0 0.0 0.00 0.00 0.00 91 1012.7
20260506034003 4 318 0.0 0.0 0.00 0.00 0.00 91 1012.7
20260506033503 4 318 0.0 0.0 0.00 0.00 0.00 91 1012.7
20260506033004 4 318 0.0 0.0 0.00 0.00 0.00 91 1012.7
20260506032504 4 318 0.0 0.0 0.00 0.00 0.00 91 1012.7
20260506032004 4 318 0.0 0.0 0.00 0.00 0.00 91 1012.7
20260506031504 4 318 0.0 0.0 0.00 0.00 0.00 91 1012.8
20260506031004 4 318 0.0 0.0 0.00 0.00 0.00 91 1012.7
20260506030504 4 318 0.0 0.0 0.00 0.00 0.00 91 1012.7
20260506025004 4 318 1.6 3.2 0.00 0.00 0.00 91 1012.8
20260506024004 4 318 0.0 0.0 0.00 0.00 0.00 91 1012.8
20260506023504 4 318 0.0 3.2 0.00 0.00 0.00 91 1012.8
20260506023003 4 318 1.6 3.2 0.00 0.00 0.00 91 1012.8
20260506022504 4 318 0.0 0.0 0.00 0.00 0.00 90 1012.8
20260506022004 4 318 0.0 0.0 0.00 0.00 0.00 90 1012.8
20260506021504 4 318 0.0 0.0 0.00 0.00 0.00 90 1012.8
20260506020503 5 318 0.0 1.6 0.00 0.00 0.00 90 1012.7
20260506020003 5 318 1.6 1.6 0.00 0.00 0.00 90 1012.6
20260506015504 5 318 0.0 0.0 0.00 0.00 0.00 90 1012.6
20260506014004 5 318 0.0 1.6 0.00 0.00 0.00 89 1012.6
20260506013503 5 318 0.0 0.0 0.00 0.00 0.00 89 1012.6
20260506012004 5 318 0.0 0.0 0.00 0.00 0.00 90 1012.6
20260506011504 5 318 0.0 0.0 0.00 0.00 0.00 90 1012.6
20260506011004 5 318 0.0 0.0 0.00 0.00 0.00 90 1012.6
20260506010003 5 318 0.0 0.0 0.00 0.00 0.00 90 1012.6
20260506005504 5 318 0.0 0.0 0.00 0.00 0.00 90 1012.7
20260506004504 5 319 1.6 4.8 0.00 0.00 0.00 91 1012.6
20260506004004 5 321 0.0 1.6 0.00 0.00 0.00 90 1012.7
20260506003504 5 321 0.0 1.6 0.00 0.00 0.00 90 1012.7
20260506003004 4 321 0.0 3.2 0.00 0.00 0.00 90 1012.8
20260506002503 4 321 1.6 3.2 0.00 0.00 0.00 90 1012.8
20260506002004 4 321 0.0 3.2 0.00 0.00 0.00 90 1012.8
20260506001504 4 321 0.0 1.6 0.00 0.00 0.00 90 1012.8
20260506001004 4 321 0.0 4.8 0.00 0.00 0.00 89 1012.8
20260506000504 4 322 1.6 4.8 0.00 0.00 0.00 89 1012.9
20260506000004 4 323 1.6 3.2 0.00 0.00 0.00 89 1012.9
20260505235504 4 323 1.6 3.2 0.00 0.00 0.00 88 1012.9
20260505235004 4 323 0.0 3.2 0.00 0.00 0.00 88 1012.9
20260505234504 4 323 1.6 3.2 0.00 0.00 0.00 88 1013.0
20260505233504 4 323 0.0 0.0 0.00 0.00 0.00 87 1013.0
20260505233004 4 323 0.0 0.0 0.00 0.00 0.00 87 1013.0
20260505231504 5 323 0.0 1.6 0.00 0.00 0.00 86 1013.2
20260505231004 5 323 1.6 3.2 0.00 0.00 0.00 86 1013.2
20260505230504 5 323 0.0 1.6 0.00 0.00 0.00 86 1013.2
20260505230004 5 323 0.0 1.6 0.00 0.00 0.00 86 1013.2
20260505225504 5 323 0.0 1.6 0.00 0.00 0.00 86 1013.2
20260505225003 5 323 1.6 3.2 0.00 0.00 0.00 86 1013.3
20260505224503 5 323 0.0 1.6 0.00 0.00 0.00 86 1013.3
20260505224003 5 323 0.0 1.6 0.00 0.00 0.00 86 1013.2
20260505222503 5 323 0.0 3.2 0.00 0.00 0.00 84 1013.3
20260505222004 5 323 3.2 4.8 0.00 0.00 0.00 84 1013.3
20260505221504 5 323 1.6 3.2 0.00 0.00 0.00 84 1013.3
20260505221003 5 323 1.6 3.2 0.00 0.00 0.00 84 1013.3
20260505220503 5 323 0.0 3.2 0.00 0.00 0.00 83 1013.3
20260505220004 5 323 0.0 3.2 0.00 0.00 0.00 83 1013.3
20260505215503 5 323 0.0 3.2 0.00 0.00 0.00 83 1013.3
20260505215004 5 323 0.0 4.8 0.00 0.00 0.00 83 1013.3
20260505214504 5 323 0.0 0.0 0.00 0.00 0.00 84 1013.3
20260505214003 6 323 0.0 0.0 0.00 0.00 0.00 83 1013.4
20260505213504 6 323 0.0 0.0 0.00 0.00 0.00 84 1013.4
20260505213004 6 323 0.0 0.0 0.00 0.00 0.00 83 1013.4
20260505212504 6 323 0.0 1.6 0.00 0.00 0.00 84 1013.5
20260505212004 6 323 1.6 3.2 0.00 0.00 0.00 84 1013.5
20260505211503 6 323 0.0 1.6 0.00 0.00 0.00 84 1013.5
20260505211004 6 323 0.0 1.6 0.00 0.00 0.00 84 1013.6
20260505210504 6 323 0.0 0.0 0.00 0.00 0.00 84 1013.6
20260505210004 6 323 0.0 0.0 0.00 0.00 0.00 84 1013.5
20260505205504 6 323 0.0 0.0 0.00 0.00 0.00 84 1013.5
20260505205003 6 323 0.0 0.0 0.00 0.00 0.00 84 1013.4
20260505204504 6 323 0.0 0.0 0.00 0.00 0.00 83 1013.4
20260505204004 6 323 0.0 1.6 0.00 0.00 0.00 83 1013.4
20260505203504 6 323 0.0 0.0 0.00 0.00 0.00 83 1013.4
20260505203004 6 323 0.0 1.6 0.00 0.00 0.00 83 1013.4
20260505202504 7 323 1.6 3.2 0.00 0.00 0.00 83 1013.4
20260505202004 7 323 0.0 0.0 0.00 0.00 0.00 83 1013.3
20260505201504 7 323 0.0 0.0 0.00 0.00 0.00 83 1013.3
20260505201004 7 323 0.0 1.6 0.00 0.00 0.00 82 1013.2
20260505200503 7 323 0.0 1.6 0.00 0.00 0.00 82 1013.2
20260505200003 7 323 0.0 4.8 0.00 0.00 0.00 82 1013.2
20260505195504 7 322 1.6 4.8 0.00 0.00 0.00 81 1013.2
20260505195003 7 324 1.6 4.8 0.00 0.00 0.00 81 1013.2
20260505194503 7 324 0.0 0.0 0.00 0.00 0.00 81 1013.3
20260505194004 7 324 1.6 3.2 0.00 0.00 0.00 80 1013.2
20260505193504 7 324 0.0 4.8 0.00 0.00 0.00 79 1013.1
20260505193004 7 324 1.6 4.8 0.00 0.00 0.00 79 1013.1
20260505192504 7 325 3.2 4.8 0.00 0.00 0.00 78 1013.1
20260505191503 7 336 1.6 4.8 0.00 0.00 0.00 77 1013.1
20260505191004 7 337 3.2 4.8 0.00 0.00 0.00 77 1013.0
20260505190004 7 329 1.6 4.8 0.00 0.00 0.00 76 1013.0
20260505185504 7 324 3.2 9.7 0.00 0.00 0.00 76 1012.9
20260505185004 7 306 1.6 4.8 0.00 0.00 0.00 76 1012.9
20260505184504 7 312 3.2 4.8 0.00 0.00 0.00 77 1012.9
20260505183504 8 324 3.2 4.8 0.00 0.00 0.00 76 1012.8
20260505182504 8 325 1.6 4.8 0.00 0.00 0.00 77 1012.9
20260505182004 8 320 1.6 9.7 0.00 0.00 0.00 77 1012.9
20260505181503 8 290 1.6 8.0 0.00 0.00 0.00 77 1012.8
20260505181004 8 316 1.6 4.8 0.00 0.00 0.00 77 1012.8
20260505180004 8 337 1.6 8.0 0.00 0.00 0.00 76 1012.7
20260505175503 8 316 3.2 9.7 0.00 0.00 0.00 76 1012.8
20260505175003 9 330 1.6 11.3 0.00 0.00 0.00 76 1012.7
20260505174504 9 315 1.6 4.8 0.00 0.00 0.00 76 1012.7
20260505174004 9 291 1.6 11.3 0.00 0.00 0.00 75 1012.7
20260505173503 9 326 3.2 8.0 0.00 0.00 0.00 75 1012.7
20260505173004 9 297 3.2 4.8 0.00 0.00 0.00 75 1012.7
20260505172004 10 343 4.8 9.7 0.00 0.00 0.00 75 1012.6
20260505171004 10 265 1.6 9.7 0.00 0.00 0.00 76 1012.6
20260505170503 10 342 3.2 4.8 0.00 0.00 0.00 77 1012.6
20260505165004 10 318 3.2 9.7 0.00 0.00 0.00 75 1012.7
20260505164504 11 19 1.6 11.3 0.00 0.00 0.00 74 1012.7
20260505164004 11 353 4.8 11.3 0.00 0.00 0.00 72 1012.7
20260505163503 11 296 3.2 11.3 0.00 0.00 0.00 72 1012.7
20260505163004 11 276 4.8 11.3 0.00 0.00 0.00 71 1012.7
20260505162504 11 267 3.2 12.9 0.00 0.00 0.00 71 1012.7
20260505162003 11 283 4.8 16.1 0.00 0.00 0.00 70 1012.7
20260505161003 11 327 3.2 9.7 0.00 0.00 0.00 68 1012.7
20260505160503 11 333 4.8 14.5 0.00 0.00 0.00 66 1012.7
20260505152504 12 337 3.2 12.9 0.00 0.00 0.00 65 1012.7
20260505152004 12 7 4.8 9.7 0.00 0.00 0.00 64 1012.7
20260505151504 12 346 4.8 11.3 0.00 0.00 0.00 62 1012.6
20260505151004 12 300 4.8 14.5 0.00 0.00 0.00 64 1012.6
20260505150504 12 332 4.8 12.9 0.00 0.00 0.00 62 1012.6
20260505140504 13 336 4.8 12.9 0.00 0.00 0.00 57 1012.6
20260505125004 13 269 8.0 14.5 0.00 0.00 0.00 58 1012.5
20260505124004 13 272 1.6 14.5 0.00 0.00 0.00 55 1012.4
20260505123504 13 299 4.8 14.5 0.00 0.00 0.00 53 1012.4
20260505123004 13 24 3.2 11.3 0.00 0.00 0.00 52 1012.4
20260505122503 13 303 1.6 19.3 0.00 0.00 0.00 50 1012.4
20260505122003 13 295 4.8 14.5 0.00 0.00 0.00 51 1012.4
20260505121503 13 237 4.8 16.1 0.00 0.00 0.00 50 1012.5
20260505120504 13 215 4.8 14.5 0.00 0.00 0.00 49 1012.4
20260505115004 13 296 1.6 8.0 0.00 0.00 0.00 55 1012.5
20260505114504 13 269 4.8 12.9 0.00 0.00 0.00 55 1012.4
20260505114004 13 298 6.4 11.3 0.00 0.00 0.00 54 1012.5
20260505113503 13 240 8.0 19.3 0.00 0.00 0.00 53 1012.5
20260505113004 13 243 6.4 19.3 0.00 0.00 0.00 55 1012.5
20260505112503 13 270 8.0 14.5 0.00 0.00 0.00 57 1012.5
20260505112004 13 59 3.2 11.3 0.00 0.00 0.00 61 1012.5
20260505111504 13 265 11.3 19.3 0.00 0.00 0.00 60 1012.5
20260505111003 12 273 6.4 16.1 0.00 0.00 0.00 62 1012.5
20260505110503 13 315 3.2 19.3 0.00 0.00 0.00 60 1012.6